Overview Statistics Trail Chart Weather Telemetry Raw packets
 

This is the latest recevied weather packets stored in our database for station/object KO4ZGL-13. If no packets are shown the sender has not sent any weather packets the latest 10 day(s).

<< 106 107 108 109 110 111 112 >>
Time Temp. Humidity Pressure Rain* Wind** Luminosity Snow
1787839876 27.22° C 94% 1017.1 hPa 0 mm - 230 W/m² -
1787839573 26.67° C 97% 1016.9 hPa 0 mm - 405 W/m² -
1787839271 26.11° C 98% 1017 hPa 0 mm - 355 W/m² -
1787838966 25.56° C 99% 1016.7 hPa 0 mm - 324 W/m² -
1787838660 25.56° C 99% 1017 hPa 0 mm - 294 W/m² -
1787838358 25.56° C 99% 1016.7 hPa 0 mm - 145 W/m² -
1787838058 26.11° C 99% 1016.7 hPa 0 mm - 334 W/m² -
1787837758 25.56° C 99% 1016.7 hPa 0 mm - 339 W/m² -
1787837453 25.56° C 99% 1016.6 hPa 0 mm - 329 W/m² -
1787837147 25° C 99% 1016.6 hPa 0 mm - 316 W/m² -
1787836846 25° C 99% 1016.5 hPa 0 mm - 274 W/m² -
1787836542 25° C 99% 1016.7 hPa 0 mm - 211 W/m² -
1787836236 25° C 99% 1016.6 hPa 0 mm - 124 W/m² -
1787835933 25° C 99% 1016.7 hPa 0 mm - 114 W/m² -
1787835633 24.44° C 99% 1016.9 hPa 0 mm - 112 W/m² -
1787835332 24.44° C 99% 1016.6 hPa 0 mm - 104 W/m² -
1787835027 24.44° C 99% 1016.9 hPa 0 mm - 97 W/m² -
1787834726 24.44° C 99% 1016.7 hPa 0 mm - 80 W/m² -
1787834422 23.89° C 99% 1016.9 hPa 0 mm - 69 W/m² -
1787834117 23.89° C 99% 1017 hPa 0 mm - 73 W/m² -
1787833813 23.89° C 99% 1016.9 hPa 0 mm - 73 W/m² -
1787833508 23.89° C 99% 1016.8 hPa 0 mm - 77 W/m² -
1787833204 23.89° C 99% 1017.1 hPa 0 mm - 77 W/m² -
1787832899 23.33° C 99% 1017 hPa 0 mm - 75 W/m² -
1787832594 23.33° C 99% 1016.9 hPa 0 mm - 67 W/m² -

* Rain latest hour (hover to see other rain measurements)
** Current wind speed in m/s (hover to see current wind gust speed)